Year,Month,Day,Hour,Minute,Value (Times are PST for windgust in km/hr)
2018,06,30,00,00,6.40
2018,06,30,00,01,8.10
2018,06,30,00,02,6.40
2018,06,30,00,03,9.60
2018,06,30,00,04,8.10
2018,06,30,00,05,8.10
2018,06,30,00,06,6.40
2018,06,30,00,07,8.10
2018,06,30,00,08,8.10
2018,06,30,00,09,8.10
2018,06,30,00,10,4.80
2018,06,30,00,11,4.80
2018,06,30,00,12,3.20
2018,06,30,00,13,3.20
2018,06,30,00,14,6.40
2018,06,30,00,15,6.40
2018,06,30,00,16,6.40
2018,06,30,00,17,9.60
2018,06,30,00,18,8.10
2018,06,30,00,19,8.10
2018,06,30,00,20,8.10
2018,06,30,00,21,4.80
2018,06,30,00,22,6.40
2018,06,30,00,23,8.10
2018,06,30,00,24,8.10
2018,06,30,00,25,9.60
2018,06,30,00,26,4.80
2018,06,30,00,27,8.10
2018,06,30,00,28,8.10
2018,06,30,00,29,6.40
2018,06,30,00,30,4.80
2018,06,30,00,31,6.40
2018,06,30,00,32,4.80
2018,06,30,00,33,6.40
2018,06,30,00,34,8.10
2018,06,30,00,35,9.60
2018,06,30,00,36,4.80
2018,06,30,00,37,6.40
2018,06,30,00,38,4.80
2018,06,30,00,39,3.20
2018,06,30,00,40,4.80
2018,06,30,00,41,6.40
2018,06,30,00,42,6.40
2018,06,30,00,43,4.80
2018,06,30,00,44,4.80
2018,06,30,00,45,3.20
2018,06,30,00,46,4.80
2018,06,30,00,47,8.10
2018,06,30,00,48,6.40
2018,06,30,00,49,4.80
2018,06,30,00,50,4.80
2018,06,30,00,53,4.80
2018,06,30,00,54,6.40
2018,06,30,00,55,6.40
2018,06,30,00,56,6.40
2018,06,30,00,57,6.40
2018,06,30,00,58,6.40
2018,06,30,00,59,3.20
2018,06,30,01,00,3.20
2018,06,30,01,01,4.80
2018,06,30,01,02,4.80
2018,06,30,01,07,1.60
2018,06,30,01,08,3.20
2018,06,30,01,09,3.20
2018,06,30,01,10,3.20
2018,06,30,01,11,3.20
2018,06,30,01,13,1.60
2018,06,30,01,15,1.60
2018,06,30,01,16,3.20
2018,06,30,01,17,4.80
2018,06,30,01,18,1.60
2018,06,30,01,21,3.20
2018,06,30,01,22,3.20
2018,06,30,01,23,4.80
2018,06,30,01,24,4.80
2018,06,30,01,25,1.60
2018,06,30,01,27,1.60
2018,06,30,01,28,1.60
2018,06,30,01,29,1.60
2018,06,30,01,36,1.60
2018,06,30,01,37,1.60
2018,06,30,01,46,1.60
2018,06,30,01,48,1.60
2018,06,30,02,01,1.60
2018,06,30,02,02,1.60
2018,06,30,02,08,1.60
2018,06,30,02,09,3.20
2018,06,30,02,10,3.20
2018,06,30,02,11,1.60
2018,06,30,02,12,1.60
2018,06,30,02,13,1.60
2018,06,30,02,14,1.60
2018,06,30,02,15,1.60
2018,06,30,02,16,3.20
2018,06,30,02,17,3.20
2018,06,30,02,18,3.20
2018,06,30,02,19,1.60
2018,06,30,02,24,1.60
2018,06,30,02,46,1.60
2018,06,30,03,14,1.60
2018,06,30,03,15,1.60
2018,06,30,03,20,1.60
2018,06,30,03,23,1.60
2018,06,30,03,24,3.20
2018,06,30,03,25,3.20
2018,06,30,03,26,4.80
2018,06,30,03,27,4.80
2018,06,30,03,28,6.40
2018,06,30,03,29,6.40
2018,06,30,03,30,4.80
2018,06,30,03,31,4.80
2018,06,30,03,32,8.10
2018,06,30,03,33,9.60
2018,06,30,03,34,9.60
2018,06,30,03,35,16.10
2018,06,30,03,36,8.10
2018,06,30,03,37,9.60
2018,06,30,03,38,8.10
2018,06,30,03,39,8.10
2018,06,30,03,40,9.60
2018,06,30,03,41,6.40
2018,06,30,03,42,8.10
2018,06,30,03,43,8.10
2018,06,30,03,44,12.90
2018,06,30,03,45,11.30
2018,06,30,03,46,14.50
2018,06,30,03,47,16.10
2018,06,30,03,48,14.50
2018,06,30,03,49,12.90
2018,06,30,03,50,11.30
2018,06,30,03,51,12.90
2018,06,30,03,52,9.60
2018,06,30,03,53,9.60
2018,06,30,03,54,11.30
2018,06,30,03,55,8.10
2018,06,30,03,56,8.10
2018,06,30,03,57,6.40
2018,06,30,03,58,14.50
2018,06,30,03,59,9.60
2018,06,30,04,00,9.60
2018,06,30,04,01,8.10
2018,06,30,04,02,8.10
2018,06,30,04,03,8.10
2018,06,30,04,04,8.10
2018,06,30,04,05,9.60
2018,06,30,04,06,8.10
2018,06,30,04,07,8.10
2018,06,30,04,08,8.10
2018,06,30,04,09,9.60
2018,06,30,04,10,8.10
2018,06,30,04,11,8.10
2018,06,30,04,12,9.60
2018,06,30,04,13,11.30
2018,06,30,04,14,9.60
2018,06,30,04,15,9.60
2018,06,30,04,16,11.30
2018,06,30,04,17,9.60
2018,06,30,04,18,8.10
2018,06,30,04,19,9.60
2018,06,30,04,20,16.10
2018,06,30,04,21,9.60
2018,06,30,04,22,11.30
2018,06,30,04,23,9.60
2018,06,30,04,24,11.30
2018,06,30,04,25,14.50
2018,06,30,04,26,9.60
2018,06,30,04,27,11.30
2018,06,30,04,28,11.30
2018,06,30,04,29,6.40
2018,06,30,04,30,8.10
2018,06,30,04,31,6.40
2018,06,30,04,32,8.10
2018,06,30,04,33,6.40
2018,06,30,04,34,4.80
2018,06,30,04,35,4.80
2018,06,30,04,36,3.20
2018,06,30,04,37,6.40
2018,06,30,04,38,8.10
2018,06,30,04,39,9.60
2018,06,30,04,40,8.10
2018,06,30,04,41,8.10
2018,06,30,04,42,6.40
2018,06,30,04,43,4.80
2018,06,30,04,44,3.20
2018,06,30,04,45,4.80
2018,06,30,04,46,4.80
2018,06,30,04,47,6.40
2018,06,30,04,48,8.10
2018,06,30,04,49,6.40
2018,06,30,04,50,4.80
2018,06,30,04,51,6.40
2018,06,30,04,52,6.40
2018,06,30,04,53,8.10
2018,06,30,04,54,6.40
2018,06,30,04,55,8.10
2018,06,30,04,56,8.10
2018,06,30,04,57,6.40
2018,06,30,04,58,8.10
2018,06,30,04,59,9.60
2018,06,30,05,00,8.10
2018,06,30,05,01,6.40
2018,06,30,05,02,6.40
2018,06,30,05,03,6.40
2018,06,30,05,04,3.20
2018,06,30,05,05,1.60
2018,06,30,05,06,1.60
2018,06,30,05,07,4.80
2018,06,30,05,08,3.20
2018,06,30,05,09,3.20
2018,06,30,05,10,3.20
2018,06,30,05,11,1.60
2018,06,30,05,12,1.60
2018,06,30,05,13,3.20
2018,06,30,05,14,1.60
2018,06,30,05,15,1.60
2018,06,30,05,16,1.60
2018,06,30,05,17,4.80
2018,06,30,05,18,4.80
2018,06,30,05,19,1.60
2018,06,30,05,20,3.20
2018,06,30,05,21,3.20
2018,06,30,05,22,3.20
2018,06,30,05,23,1.60
2018,06,30,05,24,1.60
2018,06,30,05,25,1.60
2018,06,30,05,27,1.60
2018,06,30,05,28,1.60
2018,06,30,05,29,1.60
2018,06,30,05,30,3.20
2018,06,30,05,31,3.20
2018,06,30,05,32,3.20
2018,06,30,05,33,4.80
2018,06,30,05,34,4.80
2018,06,30,05,35,4.80
2018,06,30,05,36,6.40
2018,06,30,05,37,3.20
2018,06,30,05,38,3.20
2018,06,30,05,39,3.20
2018,06,30,05,40,4.80
2018,06,30,05,41,3.20
2018,06,30,05,42,1.60
2018,06,30,05,43,1.60
2018,06,30,05,44,1.60
2018,06,30,05,45,3.20
2018,06,30,05,46,3.20
2018,06,30,05,47,8.10
2018,06,30,05,48,4.80
2018,06,30,05,49,6.40
2018,06,30,05,50,4.80
2018,06,30,05,51,3.20
2018,06,30,05,52,1.60
2018,06,30,05,53,1.60
2018,06,30,05,56,1.60
2018,06,30,06,00,1.60
2018,06,30,06,02,1.60
2018,06,30,06,03,1.60
2018,06,30,06,05,3.20
2018,06,30,06,06,1.60
2018,06,30,06,08,3.20
2018,06,30,06,09,6.40
2018,06,30,06,10,4.80
2018,06,30,06,11,1.60
2018,06,30,06,12,3.20
2018,06,30,06,13,3.20
2018,06,30,06,14,1.60
2018,06,30,06,15,8.10
2018,06,30,06,16,6.40
2018,06,30,06,17,9.60
2018,06,30,06,18,11.30
2018,06,30,06,19,14.50
2018,06,30,06,20,8.10
2018,06,30,06,21,8.10
2018,06,30,06,22,11.30
2018,06,30,06,23,16.10
2018,06,30,06,24,11.30
2018,06,30,06,25,16.10
2018,06,30,06,26,9.60
2018,06,30,06,27,9.60
2018,06,30,06,28,9.60
2018,06,30,06,29,11.30
2018,06,30,06,30,11.30
2018,06,30,06,31,8.10
2018,06,30,06,32,6.40
2018,06,30,06,33,6.40
2018,06,30,06,34,11.30
2018,06,30,06,35,8.10
2018,06,30,06,36,6.40
2018,06,30,06,37,6.40
2018,06,30,06,38,14.50
2018,06,30,06,39,9.60
2018,06,30,06,40,12.90
2018,06,30,06,41,11.30
2018,06,30,06,42,11.30
2018,06,30,06,43,9.60
2018,06,30,06,44,19.30
2018,06,30,06,45,24.20
2018,06,30,06,46,17.70
2018,06,30,06,47,16.10
2018,06,30,06,48,16.10
2018,06,30,06,49,16.10
2018,06,30,06,50,16.10
2018,06,30,06,51,14.50
2018,06,30,06,52,16.10
2018,06,30,06,53,14.50
2018,06,30,06,54,16.10
2018,06,30,06,55,17.70
2018,06,30,06,56,16.10
2018,06,30,06,57,11.30
2018,06,30,06,58,19.30
2018,06,30,06,59,17.70
2018,06,30,07,00,17.70
2018,06,30,07,01,14.50
2018,06,30,07,02,14.50
2018,06,30,07,03,16.10
2018,06,30,07,04,16.10
2018,06,30,07,05,16.10
2018,06,30,07,06,14.50
2018,06,30,07,07,11.30
2018,06,30,07,08,16.10
2018,06,30,07,09,8.10
2018,06,30,07,10,8.10
2018,06,30,07,11,6.40
2018,06,30,07,12,9.60
2018,06,30,07,13,9.60
2018,06,30,07,14,11.30
2018,06,30,07,15,9.60
2018,06,30,07,16,6.40
2018,06,30,07,17,9.60
2018,06,30,07,18,6.40
2018,06,30,07,19,4.80
2018,06,30,07,20,4.80
2018,06,30,07,21,1.60
2018,06,30,07,22,3.20
2018,06,30,07,23,4.80
2018,06,30,07,24,11.30
2018,06,30,07,25,16.10
2018,06,30,07,26,16.10
2018,06,30,07,27,9.60
2018,06,30,07,28,19.30
2018,06,30,07,29,19.30
2018,06,30,07,30,11.30
2018,06,30,07,31,22.50
2018,06,30,07,32,24.20
2018,06,30,07,33,20.90
2018,06,30,07,34,22.50
2018,06,30,07,35,17.70
2018,06,30,07,36,19.30
2018,06,30,07,37,22.50
2018,06,30,07,38,20.90
2018,06,30,07,39,24.20
2018,06,30,07,40,17.70
2018,06,30,07,41,14.50
2018,06,30,07,42,14.50
2018,06,30,07,43,19.30
2018,06,30,07,44,20.90
2018,06,30,07,45,22.50
2018,06,30,07,46,20.90
2018,06,30,07,47,22.50
2018,06,30,07,48,19.30
2018,06,30,07,49,19.30
2018,06,30,07,50,17.70
2018,06,30,07,51,11.30
2018,06,30,07,52,9.60
2018,06,30,07,53,16.10
2018,06,30,07,54,19.30
2018,06,30,07,55,20.90
2018,06,30,07,56,19.30
2018,06,30,07,57,19.30
2018,06,30,07,58,20.90
2018,06,30,07,59,19.30
2018,06,30,08,00,16.10
2018,06,30,08,01,12.90
2018,06,30,08,02,17.70
2018,06,30,08,03,22.50
2018,06,30,08,04,17.70
2018,06,30,08,05,11.30
2018,06,30,08,06,12.90
2018,06,30,08,07,16.10
2018,06,30,08,08,16.10
2018,06,30,08,09,17.70
2018,06,30,08,10,19.30
2018,06,30,08,11,19.30
2018,06,30,08,12,17.70
2018,06,30,08,13,14.50
2018,06,30,08,14,16.10
2018,06,30,08,15,11.30
2018,06,30,08,16,11.30
2018,06,30,08,17,12.90
2018,06,30,08,18,11.30
2018,06,30,08,19,9.60
2018,06,30,08,20,4.80
2018,06,30,08,21,6.40
2018,06,30,08,22,9.60
2018,06,30,08,23,11.30
2018,06,30,08,24,9.60
2018,06,30,08,25,3.20
2018,06,30,08,26,8.10
2018,06,30,08,27,3.20
2018,06,30,08,28,8.10
2018,06,30,08,29,14.50
2018,06,30,08,30,16.10
2018,06,30,08,31,9.60
2018,06,30,08,32,16.10
2018,06,30,08,33,8.10
2018,06,30,08,34,12.90
2018,06,30,08,35,8.10
2018,06,30,08,36,17.70
2018,06,30,08,37,27.40
2018,06,30,08,38,19.30
2018,06,30,08,39,24.20
2018,06,30,08,40,20.90
2018,06,30,08,41,19.30
2018,06,30,08,42,17.70
2018,06,30,08,43,9.60
2018,06,30,08,44,20.90
2018,06,30,08,45,20.90
2018,06,30,08,46,16.10
2018,06,30,08,47,20.90
2018,06,30,08,48,16.10
2018,06,30,08,49,14.50
2018,06,30,08,50,14.50
2018,06,30,08,51,19.30
2018,06,30,08,52,22.50
2018,06,30,08,53,22.50
2018,06,30,08,54,14.50
2018,06,30,08,55,17.70
2018,06,30,08,56,20.90
2018,06,30,08,57,22.50
2018,06,30,08,58,17.70
2018,06,30,08,59,27.40
2018,06,30,09,00,19.30
2018,06,30,09,01,14.50
2018,06,30,09,02,24.20
2018,06,30,09,03,16.10
2018,06,30,09,04,22.50
2018,06,30,09,05,17.70
2018,06,30,09,06,17.70
2018,06,30,09,07,22.50
2018,06,30,09,08,22.50
2018,06,30,09,09,25.70
2018,06,30,09,10,29.00
2018,06,30,09,11,22.50
2018,06,30,09,12,14.50
2018,06,30,09,13,24.20
2018,06,30,09,14,22.50
2018,06,30,09,15,20.90
2018,06,30,09,16,24.20
2018,06,30,09,17,20.90
2018,06,30,09,18,19.30
2018,06,30,09,19,22.50
2018,06,30,09,20,17.70
2018,06,30,09,21,17.70
2018,06,30,09,22,16.10
2018,06,30,09,23,22.50
2018,06,30,09,24,17.70
2018,06,30,09,25,16.10
2018,06,30,09,26,16.10
2018,06,30,09,27,16.10
2018,06,30,09,28,14.50
2018,06,30,09,29,11.30
2018,06,30,09,30,16.10
2018,06,30,09,31,16.10
2018,06,30,09,32,17.70
2018,06,30,09,33,14.50
2018,06,30,09,34,11.30
2018,06,30,09,35,9.60
2018,06,30,09,36,11.30
2018,06,30,09,37,22.50
2018,06,30,09,38,16.10
2018,06,30,09,39,14.50
2018,06,30,09,40,16.10
2018,06,30,09,41,16.10
2018,06,30,09,42,11.30
2018,06,30,09,43,11.30
2018,06,30,09,44,14.50
2018,06,30,09,45,11.30
2018,06,30,09,46,14.50
2018,06,30,09,47,11.30
2018,06,30,09,48,11.30
2018,06,30,09,49,9.60
2018,06,30,09,50,16.10
2018,06,30,09,51,12.90
2018,06,30,09,52,16.10
2018,06,30,09,53,16.10
2018,06,30,09,54,14.50
2018,06,30,09,55,16.10
2018,06,30,09,56,11.30
2018,06,30,09,57,19.30
2018,06,30,09,58,17.70
2018,06,30,09,59,14.50
2018,06,30,10,00,20.90
2018,06,30,10,01,16.10
2018,06,30,10,02,14.50
2018,06,30,10,03,17.70
2018,06,30,10,04,14.50
2018,06,30,10,05,19.30
2018,06,30,10,06,20.90
2018,06,30,10,07,17.70
2018,06,30,10,08,17.70
2018,06,30,10,09,19.30
2018,06,30,10,10,14.50
2018,06,30,10,11,14.50
2018,06,30,10,12,9.60
2018,06,30,10,13,16.10
2018,06,30,10,14,17.70
2018,06,30,10,15,17.70
2018,06,30,10,16,24.20
2018,06,30,10,17,14.50
2018,06,30,10,18,14.50
2018,06,30,10,19,20.90
2018,06,30,10,20,19.30
2018,06,30,10,21,17.70
2018,06,30,10,22,11.30
2018,06,30,10,23,14.50
2018,06,30,10,24,16.10
2018,06,30,10,25,19.30
2018,06,30,10,26,16.10
2018,06,30,10,27,16.10
2018,06,30,10,28,14.50
2018,06,30,10,29,11.30
2018,06,30,10,30,9.60
2018,06,30,10,31,8.10
2018,06,30,10,32,8.10
2018,06,30,10,33,11.30
2018,06,30,10,34,11.30
2018,06,30,10,35,14.50
2018,06,30,10,36,11.30
2018,06,30,10,37,17.70
2018,06,30,10,38,8.10
2018,06,30,10,39,9.60
2018,06,30,10,40,8.10
2018,06,30,10,41,9.60
2018,06,30,10,42,16.10
2018,06,30,10,43,14.50
2018,06,30,10,44,14.50
2018,06,30,10,45,12.90
2018,06,30,10,46,9.60
2018,06,30,10,47,11.30
2018,06,30,10,48,9.60
2018,06,30,10,49,11.30
2018,06,30,10,50,11.30
2018,06,30,10,51,9.60
2018,06,30,10,52,8.10
2018,06,30,10,53,16.10
2018,06,30,10,54,11.30
2018,06,30,10,55,9.60
2018,06,30,10,56,6.40
2018,06,30,10,57,4.80
2018,06,30,10,58,4.80
2018,06,30,10,59,8.10
2018,06,30,11,00,6.40
2018,06,30,11,01,4.80
2018,06,30,11,02,8.10
2018,06,30,11,03,6.40
2018,06,30,11,04,8.10
2018,06,30,11,05,9.60
2018,06,30,11,06,11.30
2018,06,30,11,07,6.40
2018,06,30,11,08,6.40
2018,06,30,11,09,4.80
2018,06,30,11,10,6.40
2018,06,30,11,11,4.80
2018,06,30,11,12,3.20
2018,06,30,11,13,4.80
2018,06,30,11,14,4.80
2018,06,30,11,15,3.20
2018,06,30,11,16,3.20
2018,06,30,11,17,1.60
2018,06,30,11,18,4.80
2018,06,30,11,19,3.20
2018,06,30,11,20,1.60
2018,06,30,11,21,1.60
2018,06,30,11,22,4.80
2018,06,30,11,23,4.80
2018,06,30,11,24,6.40
2018,06,30,11,25,1.60
2018,06,30,11,26,4.80
2018,06,30,11,27,4.80
2018,06,30,11,28,3.20
2018,06,30,11,29,1.60
2018,06,30,11,30,1.60
2018,06,30,11,31,4.80
2018,06,30,11,32,8.10
2018,06,30,11,33,9.60
2018,06,30,11,34,6.40
2018,06,30,11,35,9.60
2018,06,30,11,36,6.40
2018,06,30,11,37,8.10
2018,06,30,11,38,6.40
2018,06,30,11,39,3.20
2018,06,30,11,40,4.80
2018,06,30,11,41,6.40
2018,06,30,11,42,3.20
2018,06,30,11,43,4.80
2018,06,30,11,44,1.60
2018,06,30,11,45,6.40
2018,06,30,11,46,3.20
2018,06,30,11,47,4.80
2018,06,30,11,48,4.80
2018,06,30,11,49,4.80
2018,06,30,11,50,8.10
2018,06,30,11,51,6.40
2018,06,30,11,52,11.30
2018,06,30,11,53,9.60
2018,06,30,11,54,16.10
2018,06,30,11,55,19.30
2018,06,30,11,56,9.60
2018,06,30,11,57,8.10
2018,06,30,11,58,4.80
2018,06,30,11,59,11.30
2018,06,30,12,00,9.60
2018,06,30,12,01,6.40
2018,06,30,12,02,3.20
2018,06,30,12,03,4.80
2018,06,30,12,04,6.40
2018,06,30,12,05,8.10
2018,06,30,12,06,11.30
2018,06,30,12,07,9.60
2018,06,30,12,08,9.60
2018,06,30,12,09,8.10
2018,06,30,12,10,9.60
2018,06,30,12,11,9.60
2018,06,30,12,12,4.80
2018,06,30,12,13,9.60
2018,06,30,12,14,8.10
2018,06,30,12,15,6.40
2018,06,30,12,16,6.40
2018,06,30,12,17,8.10
2018,06,30,12,18,11.30
2018,06,30,12,19,11.30
2018,06,30,12,20,9.60
2018,06,30,12,21,9.60
2018,06,30,12,22,8.10
2018,06,30,12,23,8.10
2018,06,30,12,24,4.80
2018,06,30,12,25,8.10
2018,06,30,12,26,6.40
2018,06,30,12,27,9.60
2018,06,30,12,28,11.30
2018,06,30,12,29,16.10
2018,06,30,12,30,9.60
2018,06,30,12,31,11.30
2018,06,30,12,32,14.50
2018,06,30,12,33,9.60
2018,06,30,12,34,6.40
2018,06,30,12,35,8.10
2018,06,30,12,36,9.60
2018,06,30,12,37,9.60
2018,06,30,12,38,9.60
2018,06,30,12,39,11.30
2018,06,30,12,40,6.40
2018,06,30,12,41,4.80
2018,06,30,12,42,4.80
2018,06,30,12,43,8.10
2018,06,30,12,44,8.10
2018,06,30,12,45,17.70
2018,06,30,12,46,16.10
2018,06,30,12,47,16.10
2018,06,30,12,48,11.30
2018,06,30,12,49,9.60
2018,06,30,12,50,9.60
2018,06,30,12,51,9.60
2018,06,30,12,52,9.60
2018,06,30,12,53,16.10
2018,06,30,12,54,11.30
2018,06,30,12,55,6.40
2018,06,30,12,56,11.30
2018,06,30,12,57,11.30
2018,06,30,12,58,11.30
2018,06,30,12,59,9.60
2018,06,30,13,00,11.30
2018,06,30,13,01,8.10
2018,06,30,13,02,6.40
2018,06,30,13,03,14.50
2018,06,30,13,04,16.10
2018,06,30,13,05,9.60
2018,06,30,13,06,11.30
2018,06,30,13,07,16.10
2018,06,30,13,08,12.90
2018,06,30,13,09,16.10
2018,06,30,13,10,11.30
2018,06,30,13,11,16.10
2018,06,30,13,12,14.50
2018,06,30,13,13,11.30
2018,06,30,13,14,9.60
2018,06,30,13,15,9.60
2018,06,30,13,16,8.10
2018,06,30,13,17,9.60
2018,06,30,13,18,8.10
2018,06,30,13,19,9.60
2018,06,30,13,20,6.40
2018,06,30,13,21,8.10
2018,06,30,13,22,11.30
2018,06,30,13,23,8.10
2018,06,30,13,24,8.10
2018,06,30,13,25,9.60
2018,06,30,13,26,11.30
2018,06,30,13,27,11.30
2018,06,30,13,28,9.60
2018,06,30,13,29,8.10
2018,06,30,13,30,8.10
2018,06,30,13,31,9.60
2018,06,30,13,32,9.60
2018,06,30,13,33,11.30
2018,06,30,13,34,8.10
2018,06,30,13,35,4.80
2018,06,30,13,36,4.80
2018,06,30,13,37,6.40
2018,06,30,13,38,6.40
2018,06,30,13,39,9.60
2018,06,30,13,40,8.10
2018,06,30,13,41,6.40
2018,06,30,13,42,8.10
2018,06,30,13,43,9.60
2018,06,30,13,44,6.40
2018,06,30,13,45,1.60
2018,06,30,13,48,1.60
2018,06,30,13,50,4.80
2018,06,30,13,51,4.80
2018,06,30,13,52,9.60
2018,06,30,13,53,19.30
2018,06,30,13,54,17.70
2018,06,30,13,55,11.30
2018,06,30,13,56,6.40
2018,06,30,13,57,8.10
2018,06,30,13,58,16.10
2018,06,30,13,59,9.60
2018,06,30,14,00,19.30
2018,06,30,14,01,22.50
2018,06,30,14,02,12.90
2018,06,30,14,03,9.60
2018,06,30,14,04,19.30
2018,06,30,14,05,20.90
2018,06,30,14,06,17.70
2018,06,30,14,07,12.90
2018,06,30,14,08,19.30
2018,06,30,14,09,22.50
2018,06,30,14,10,22.50
2018,06,30,14,11,19.30
2018,06,30,14,12,24.20
2018,06,30,14,13,25.70
2018,06,30,14,14,30.60
2018,06,30,14,15,25.70
2018,06,30,14,16,20.90
2018,06,30,14,17,24.20
2018,06,30,14,18,20.90
2018,06,30,14,19,24.20
2018,06,30,14,20,14.50
2018,06,30,14,21,19.30
2018,06,30,14,22,16.10
2018,06,30,14,23,22.50
2018,06,30,14,24,19.30
2018,06,30,14,25,11.30
2018,06,30,14,26,24.20
2018,06,30,14,27,27.40
2018,06,30,14,28,19.30
2018,06,30,14,29,22.50
2018,06,30,14,30,19.30
2018,06,30,14,31,19.30
2018,06,30,14,32,11.30
2018,06,30,14,33,16.10
2018,06,30,14,34,19.30
2018,06,30,14,35,16.10
2018,06,30,14,36,16.10
2018,06,30,14,37,19.30
2018,06,30,14,38,14.50
2018,06,30,14,39,14.50
2018,06,30,14,40,16.10
2018,06,30,14,41,20.90
2018,06,30,14,42,29.00
2018,06,30,14,43,22.50
2018,06,30,14,44,19.30
2018,06,30,14,45,20.90
2018,06,30,14,46,16.10
2018,06,30,14,47,20.90
2018,06,30,14,48,25.70
2018,06,30,14,49,19.30
2018,06,30,14,50,19.30
2018,06,30,14,51,16.10
2018,06,30,14,52,32.20
2018,06,30,14,53,29.00
2018,06,30,14,54,27.40
2018,06,30,14,55,16.10
2018,06,30,14,56,14.50
2018,06,30,14,57,17.70
2018,06,30,14,58,19.30
2018,06,30,14,59,20.90
2018,06,30,15,00,19.30
2018,06,30,15,01,11.30
2018,06,30,15,02,12.90
2018,06,30,15,03,9.60
2018,06,30,15,04,12.90
2018,06,30,15,05,14.50
2018,06,30,15,06,22.50
2018,06,30,15,07,22.50
2018,06,30,15,08,22.50
2018,06,30,15,09,25.70
2018,06,30,15,10,32.20
2018,06,30,15,11,27.40
2018,06,30,15,12,25.70
2018,06,30,15,13,19.30
2018,06,30,15,14,27.40
2018,06,30,15,15,17.70
2018,06,30,15,16,22.50
2018,06,30,15,17,17.70
2018,06,30,15,18,19.30
2018,06,30,15,19,19.30
2018,06,30,15,20,17.70
2018,06,30,15,21,19.30
2018,06,30,15,22,17.70
2018,06,30,15,23,14.50
2018,06,30,15,24,17.70
2018,06,30,15,25,14.50
2018,06,30,15,26,20.90
2018,06,30,15,27,17.70
2018,06,30,15,28,19.30
2018,06,30,15,29,27.40
2018,06,30,15,30,20.90
2018,06,30,15,31,17.70
2018,06,30,15,32,19.30
2018,06,30,15,33,22.50
2018,06,30,15,34,24.20
2018,06,30,15,35,19.30
2018,06,30,15,36,8.10
2018,06,30,15,37,19.30
2018,06,30,15,38,24.20
2018,06,30,15,39,17.70
2018,06,30,15,40,22.50
2018,06,30,15,41,27.40
2018,06,30,15,42,24.20
2018,06,30,15,43,25.70
2018,06,30,15,44,17.70
2018,06,30,15,45,17.70
2018,06,30,15,46,12.90
2018,06,30,15,47,29.00
2018,06,30,15,48,24.20
2018,06,30,15,49,33.80
2018,06,30,15,50,30.60
2018,06,30,15,51,22.50
2018,06,30,15,52,24.20
2018,06,30,15,53,16.10
2018,06,30,15,54,22.50
2018,06,30,15,55,29.00
2018,06,30,15,56,24.20
2018,06,30,15,57,17.70
2018,06,30,15,58,24.20
2018,06,30,15,59,25.70
2018,06,30,16,00,27.40
2018,06,30,16,01,30.60
2018,06,30,16,02,25.70
2018,06,30,16,03,25.70
2018,06,30,16,04,19.30
2018,06,30,16,05,29.00
2018,06,30,16,06,37.00
2018,06,30,16,07,32.20
2018,06,30,16,08,16.10
2018,06,30,16,09,22.50
2018,06,30,16,10,20.90
2018,06,30,16,11,22.50
2018,06,30,16,12,19.30
2018,06,30,16,13,35.40
2018,06,30,16,14,25.70
2018,06,30,16,15,22.50
2018,06,30,16,16,25.70
2018,06,30,16,17,17.70
2018,06,30,16,18,20.90
2018,06,30,16,19,25.70
2018,06,30,16,20,29.00
2018,06,30,16,21,27.40
2018,06,30,16,22,22.50
2018,06,30,16,23,24.20
2018,06,30,16,24,24.20
2018,06,30,16,25,19.30
2018,06,30,16,26,22.50
2018,06,30,16,27,33.80
2018,06,30,16,28,33.80
2018,06,30,16,29,32.20
2018,06,30,16,30,30.60
2018,06,30,16,31,27.40
2018,06,30,16,32,22.50
2018,06,30,16,33,37.00
2018,06,30,16,34,32.20
2018,06,30,16,35,35.40
2018,06,30,16,36,32.20
2018,06,30,16,37,25.70
2018,06,30,16,38,25.70
2018,06,30,16,39,19.30
2018,06,30,16,40,24.20
2018,06,30,16,41,22.50
2018,06,30,16,42,20.90
2018,06,30,16,43,30.60
2018,06,30,16,44,22.50
2018,06,30,16,45,24.20
2018,06,30,16,46,30.60
2018,06,30,16,47,33.80
2018,06,30,16,48,25.70
2018,06,30,16,49,25.70
2018,06,30,16,50,24.20
2018,06,30,16,51,20.90
2018,06,30,16,52,22.50
2018,06,30,16,53,24.20
2018,06,30,16,54,22.50
2018,06,30,16,55,30.60
2018,06,30,16,56,30.60
2018,06,30,16,57,24.20
2018,06,30,16,58,38.60
2018,06,30,16,59,38.60
2018,06,30,17,00,35.40
2018,06,30,17,01,29.00
2018,06,30,17,02,20.90
2018,06,30,17,03,19.30
2018,06,30,17,04,17.70
2018,06,30,17,05,24.20
2018,06,30,17,06,20.90
2018,06,30,17,07,24.20
2018,06,30,17,08,24.20
2018,06,30,17,09,27.40
2018,06,30,17,10,33.80
2018,06,30,17,11,25.70
2018,06,30,17,12,35.40
2018,06,30,17,13,27.40
2018,06,30,17,14,27.40
2018,06,30,17,15,32.20
2018,06,30,17,16,25.70
2018,06,30,17,17,20.90
2018,06,30,17,18,29.00
2018,06,30,17,19,22.50
2018,06,30,17,20,17.70
2018,06,30,17,21,11.30
2018,06,30,17,22,27.40
2018,06,30,17,23,16.10
2018,06,30,17,24,29.00
2018,06,30,17,25,37.00
2018,06,30,17,26,24.20
2018,06,30,17,27,30.60
2018,06,30,17,28,25.70
2018,06,30,17,29,37.00
2018,06,30,17,30,37.00
2018,06,30,17,31,32.20
2018,06,30,17,32,27.40
2018,06,30,17,33,25.70
2018,06,30,17,34,37.00
2018,06,30,17,35,25.70
2018,06,30,17,36,30.60
2018,06,30,17,37,19.30
2018,06,30,17,38,25.70
2018,06,30,17,39,20.90
2018,06,30,17,40,25.70
2018,06,30,17,41,22.50
2018,06,30,17,42,19.30
2018,06,30,17,43,22.50
2018,06,30,17,44,14.50
2018,06,30,17,45,20.90
2018,06,30,17,46,20.90
2018,06,30,17,47,20.90
2018,06,30,17,48,20.90
2018,06,30,17,49,33.80
2018,06,30,17,50,16.10
2018,06,30,17,51,12.90
2018,06,30,17,52,9.60
2018,06,30,17,53,27.40
2018,06,30,17,54,35.40
2018,06,30,17,55,24.20
2018,06,30,17,56,12.90
2018,06,30,17,57,22.50
2018,06,30,17,58,27.40
2018,06,30,17,59,19.30
2018,06,30,18,00,4.80
2018,06,30,18,01,17.70
2018,06,30,18,02,9.60
2018,06,30,18,03,17.70
2018,06,30,18,04,17.70
2018,06,30,18,05,20.90
2018,06,30,18,06,16.10
2018,06,30,18,07,22.50
2018,06,30,18,08,22.50
2018,06,30,18,09,19.30
2018,06,30,18,10,14.50
2018,06,30,18,11,8.10
2018,06,30,18,12,14.50
2018,06,30,18,13,14.50
2018,06,30,18,14,16.10
2018,06,30,18,15,14.50
2018,06,30,18,16,9.60
2018,06,30,18,17,6.40
2018,06,30,18,18,11.30
2018,06,30,18,19,11.30
2018,06,30,18,20,16.10
2018,06,30,18,21,19.30
2018,06,30,18,22,11.30
2018,06,30,18,23,24.20
2018,06,30,18,24,20.90
2018,06,30,18,25,16.10
2018,06,30,18,26,14.50
2018,06,30,18,27,16.10
2018,06,30,18,28,20.90
2018,06,30,18,29,22.50
2018,06,30,18,30,22.50
2018,06,30,18,31,22.50
2018,06,30,18,32,16.10
2018,06,30,18,33,16.10
2018,06,30,18,34,17.70
2018,06,30,18,35,16.10
2018,06,30,18,36,20.90
2018,06,30,18,37,24.20
2018,06,30,18,38,20.90
2018,06,30,18,39,17.70
2018,06,30,18,40,33.80
2018,06,30,18,41,24.20
2018,06,30,18,42,20.90
2018,06,30,18,43,22.50
2018,06,30,18,44,30.60
2018,06,30,18,45,29.00
2018,06,30,18,46,24.20
2018,06,30,18,47,24.20
2018,06,30,18,48,24.20
2018,06,30,18,49,20.90
2018,06,30,18,50,30.60
2018,06,30,18,51,20.90
2018,06,30,18,52,16.10
2018,06,30,18,53,16.10
2018,06,30,18,54,24.20
2018,06,30,18,55,16.10
2018,06,30,18,56,19.30
2018,06,30,18,57,14.50
2018,06,30,18,58,8.10
2018,06,30,18,59,14.50
2018,06,30,19,00,17.70
2018,06,30,19,01,20.90
2018,06,30,19,02,9.60
2018,06,30,19,03,9.60
2018,06,30,19,04,9.60
2018,06,30,19,05,9.60
2018,06,30,19,06,8.10
2018,06,30,19,07,17.70
2018,06,30,19,08,22.50
2018,06,30,19,09,20.90
2018,06,30,19,10,16.10
2018,06,30,19,11,22.50
2018,06,30,19,12,17.70
2018,06,30,19,13,19.30
2018,06,30,19,14,17.70
2018,06,30,19,15,25.70
2018,06,30,19,16,22.50
2018,06,30,19,17,11.30
2018,06,30,19,18,14.50
2018,06,30,19,19,12.90
2018,06,30,19,20,24.20
2018,06,30,19,21,19.30
2018,06,30,19,22,20.90
2018,06,30,19,23,22.50
2018,06,30,19,24,25.70
2018,06,30,19,25,19.30
2018,06,30,19,26,20.90
2018,06,30,19,27,24.20
2018,06,30,19,28,17.70
2018,06,30,19,29,16.10
2018,06,30,19,30,20.90
2018,06,30,19,31,17.70
2018,06,30,19,32,14.50